OMD977 ENGM-VIDP

Flight info

Callsign OMD977
Flight time N/A
Altitude 37000
Route VIPPA DCT ESOSI DCT DETNA DCT MADAG DCT LASGI DCT KOLOB DCT AGODU DCT DEKUT DCT INDIG DCT BAREX DCT NAXAR DCT KELEL DCT BADOR DCT IXORI DCT ZULOC DCT RONBU DCT RIXEN UA17 YAVRU/N0486F390 UA4 ERZ UN161 INDUR DCT TUTAK N449 SULEL M747 BODKA P130 MAMED B449 DOLOS B475 NINOP A909 LEMOD N644 DI A466 ELKUX ELKUX7E
Aircraft B789/H-SDE1E2E3FGHIJ2J3J4J5M1RWXY/LB1D1

Departure

Time 2026-05-07 12:23
Airport Oslo-Gardermoen International Airport (ENGM)

Arrival

Time N/A
Airport Indira Gandhi International Airport (VIDP)
Time Latitude Longitude Altitude Speed Heading
2026-05-07 11:53 60.20274 11.07712 679 ft 0 kts 286°
2026-05-07 12:13 60.20270 11.07731 678 ft 3 kts 298°
2026-05-07 12:13 60.20259 11.07762 675 ft 3 kts 319°
2026-05-07 12:14 60.20243 11.07782 677 ft 3 kts 340°
2026-05-07 12:14 60.20228 11.07793 676 ft 2 kts 340°
2026-05-07 12:14 60.20212 11.07805 676 ft 2 kts 340°
2026-05-07 12:14 60.20194 11.07814 677 ft 3 kts 356°
2026-05-07 12:15 60.20180 11.07813 675 ft 0 kts 13°
2026-05-07 12:16 60.20203 11.07824 675 ft 8 kts 13°
2026-05-07 12:17 60.20270 11.07861 681 ft 10 kts 18°
2026-05-07 12:17 60.20329 11.07915 680 ft 4 kts 49°
2026-05-07 12:17 60.20335 11.07968 678 ft 5 kts 92°
2026-05-07 12:17 60.20324 11.08070 677 ft 11 kts 104°
2026-05-07 12:18 60.20300 11.08252 679 ft 14 kts 105°
2026-05-07 12:18 60.20273 11.08451 678 ft 16 kts 105°
2026-05-07 12:18 60.20245 11.08667 683 ft 16 kts 105°
2026-05-07 12:18 60.20219 11.08855 682 ft 12 kts 90°
2026-05-07 12:19 60.20261 11.08951 681 ft 9 kts 22°
2026-05-07 12:19 60.20324 11.08988 681 ft 10 kts 17°
2026-05-07 12:19 60.20426 11.09048 682 ft 20 kts 16°
2026-05-07 12:19 60.20570 11.09127 682 ft 22 kts 15°
2026-05-07 12:20 60.20713 11.09214 687 ft 21 kts 16°
2026-05-07 12:20 60.20849 11.09293 686 ft 20 kts 15°
2026-05-07 12:20 60.20979 11.09367 686 ft 19 kts 15°
2026-05-07 12:20 60.21107 11.09440 688 ft 19 kts 16°
2026-05-07 12:21 60.21228 11.09511 686 ft 18 kts 16°
2026-05-07 12:21 60.21352 11.09584 691 ft 19 kts 16°
2026-05-07 12:21 60.21477 11.09640 689 ft 17 kts 354°
2026-05-07 12:21 60.21550 11.09479 683 ft 17 kts 286°
2026-05-07 12:22 60.21574 11.09246 685 ft 16 kts 264°
2026-05-07 12:22 60.21504 11.09107 684 ft 15 kts 197°
2026-05-07 12:22 60.21450 11.09078 681 ft 0 kts 195°
2026-05-07 12:22 60.21245 11.08962 683 ft 74 kts 196°
2026-05-07 12:23 60.20473 11.08513 678 ft 153 kts 196°
2026-05-07 12:23 60.19281 11.07812 1165 ft 184 kts 202°
2026-05-07 12:23 60.18000 11.07022 2227 ft 208 kts 198°
2026-05-07 12:23 60.16622 11.05889 3098 ft 226 kts 216°
2026-05-07 12:24 60.15662 11.03151 3682 ft 255 kts 250°
2026-05-07 12:24 60.15099 10.99757 5045 ft 255 kts 251°
2026-05-07 12:24 60.14448 10.96462 6208 ft 259 kts 245°
2026-05-07 12:24 60.13261 10.93735 7263 ft 264 kts 211°
2026-05-07 12:25 60.11583 10.92067 8340 ft 271 kts 206°
2026-05-07 12:25 60.09871 10.90493 9451 ft 275 kts 207°
2026-05-07 12:25 60.08125 10.88759 10401 ft 285 kts 210°
2026-05-07 12:25 60.06297 10.86873 10789 ft 312 kts 210°
2026-05-07 12:26 60.04271 10.84818 11158 ft 339 kts 209°
2026-05-07 12:26 60.02829 10.83380 11349 ft 357 kts 209°
2026-05-07 12:26 59.99833 10.80410 12688 ft 361 kts 209°
2026-05-07 12:26 59.98336 10.78912 13320 ft 365 kts 210°
2026-05-07 12:27 59.96050 10.76619 14261 ft 369 kts 210°
2026-05-07 12:27 59.92974 10.73552 15431 ft 374 kts 210°
2026-05-07 12:27 59.91425 10.72012 16005 ft 376 kts 210°
2026-05-07 12:27 59.89070 10.69674 16852 ft 380 kts 210°
2026-05-07 12:28 59.86683 10.67305 17683 ft 384 kts 211°
2026-05-07 12:28 59.84264 10.64908 18503 ft 388 kts 211°
2026-05-07 12:28 59.81823 10.62494 19231 ft 392 kts 211°
2026-05-07 12:28 59.79385 10.60086 19918 ft 396 kts 211°
2026-05-07 12:29 59.76915 10.57652 20590 ft 400 kts 211°
2026-05-07 12:29 59.74401 10.55179 21225 ft 404 kts 212°
2026-05-07 12:29 59.71853 10.52676 21863 ft 408 kts 212°
2026-05-07 12:29 59.69318 10.50188 22438 ft 412 kts 212°
2026-05-07 12:30 59.66747 10.47672 23018 ft 416 kts 212°
2026-05-07 12:30 59.64135 10.45122 23639 ft 419 kts 212°
2026-05-07 12:30 59.61510 10.42560 24119 ft 422 kts 212°
2026-05-07 12:30 59.58772 10.40286 24546 ft 432 kts 203°
2026-05-07 12:31 59.55834 10.38953 24978 ft 442 kts 196°
2026-05-07 12:31 59.52768 10.37914 25402 ft 445 kts 196°
2026-05-07 12:31 59.49731 10.36888 25822 ft 449 kts 196°
2026-05-07 12:31 59.46618 10.35843 26243 ft 452 kts 196°
2026-05-07 12:32 59.43532 10.34806 26657 ft 455 kts 196°
2026-05-07 12:32 59.40369 10.33741 27062 ft 458 kts 196°
2026-05-07 12:32 59.37243 10.32692 27463 ft 461 kts 196°
2026-05-07 12:32 59.34058 10.31627 27846 ft 465 kts 196°
2026-05-07 12:33 59.27655 10.29491 28609 ft 471 kts 196°
2026-05-07 12:33 59.24385 10.28403 28979 ft 474 kts 196°
2026-05-07 12:33 59.21124 10.27320 29352 ft 477 kts 196°
2026-05-07 12:34 59.17879 10.26245 29682 ft 480 kts 196°
2026-05-07 12:34 59.14509 10.25612 29976 ft 488 kts 189°
2026-05-07 12:34 59.11122 10.25173 30300 ft 490 kts 191°
2026-05-07 12:34 59.07681 10.24667 30595 ft 492 kts 191°
2026-05-07 12:35 59.04289 10.24191 30875 ft 495 kts 190°
2026-05-07 12:35 59.00832 10.23745 31159 ft 497 kts 190°
2026-05-07 12:35 58.97362 10.23290 31465 ft 498 kts 190°
2026-05-07 12:35 58.93909 10.22949 31868 ft 502 kts 184°
2026-05-07 12:36 58.90396 10.23366 32200 ft 504 kts 182°
2026-05-07 12:36 58.86930 10.23784 32607 ft 503 kts 182°
2026-05-07 12:36 58.83424 10.24217 33012 ft 502 kts 182°
2026-05-07 12:36 58.79922 10.24665 33432 ft 502 kts 182°
2026-05-07 12:37 58.76479 10.25103 33807 ft 501 kts 182°
2026-05-07 12:37 58.72987 10.25536 34190 ft 500 kts 182°
2026-05-07 12:37 58.69507 10.25966 34536 ft 500 kts 181°
2026-05-07 12:37 58.66058 10.26397 34887 ft 498 kts 181°
2026-05-07 12:38 58.62597 10.26830 35246 ft 497 kts 181°
2026-05-07 12:38 58.59140 10.27597 35590 ft 501 kts 172°
2026-05-07 12:38 58.55766 10.29507 35937 ft 507 kts 161°
2026-05-07 12:38 58.52539 10.32101 36230 ft 507 kts 161°
2026-05-07 12:39 58.49283 10.34769 36598 ft 506 kts 160°
2026-05-07 12:39 58.46070 10.37427 36967 ft 504 kts 160°
2026-05-07 12:39 58.42836 10.40073 37329 ft 503 kts 161°
2026-05-07 12:39 58.39633 10.42668 37703 ft 501 kts 161°
2026-05-07 12:40 58.36463 10.45239 38043 ft 500 kts 160°
2026-05-07 12:40 58.33226 10.47875 38404 ft 499 kts 160°
2026-05-07 12:40 58.30070 10.50436 38750 ft 497 kts 160°
2026-05-07 12:40 58.26882 10.53011 39024 ft 496 kts 160°
2026-05-07 12:41 58.23685 10.55586 39248 ft 496 kts 160°
2026-05-07 12:41 58.20540 10.58120 39468 ft 496 kts 160°
2026-05-07 12:41 58.17330 10.60703 39699 ft 496 kts 160°
2026-05-07 12:41 58.14188 10.63223 39926 ft 495 kts 160°
2026-05-07 12:42 58.11001 10.65774 40151 ft 495 kts 160°
2026-05-07 12:42 58.07848 10.68293 40373 ft 495 kts 160°
2026-05-07 12:42 58.04661 10.70836 40597 ft 494 kts 160°
2026-05-07 12:42 58.01509 10.73345 40811 ft 494 kts 160°
2026-05-07 12:43 57.98318 10.75881 41032 ft 494 kts 160°
2026-05-07 12:43 57.95170 10.78375 41107 ft 497 kts 160°
2026-05-07 12:43 57.88817 10.83401 41117 ft 494 kts 160°